User: anonymous   Login
Location: Newark
(22.3060°N, 114.2134°E)
Time: 05:26:28
(UTC+00:00)
Language:

Courier 1B Rocket - Orbit

View from above orbital plane
View from above orbital plane
View from above satellite
View from above satellite

Ground track
Ground track

The orbit data is extracted from the following two-line orbital elements,

1 00059U 60013B   21212.60063403  .00000089  00000-0  26468-5 0  9992
2 00059  28.2476 276.4978 0189214 120.2390 241.7030 13.52986503  1718
Epoch (UTC): 31 July 2021 14:24:54
Eccentricity: 0.0189214
inclination: 28.2476°
perigee height: 920 km
apogee height: 1202 km
right ascension of ascending node: 276.4978°
argument of perigee: 120.2390°
revolutions per day: 13.52986503
mean anomaly at epoch: 241.7030°
orbit number at epoch: 171

The dashed part of the orbit path shows where the satellite is in the earth's shadow,  

DLR